Location: Brede
(50.9167°N, 0.6000°E)
Time: 22:45:13
(UTC+00:00)

A-11 Canister half - Pass Details

Date: 01 December 2020
Orbit: 1524 x 1684 km, 47.3° (Epoch: 24 January)

Event Time Altitude Azimuth Distance (km) Brightness Sun altitude
Rises 06:05:59 0° 237° (WSW) 4,932 11.3 -13.9°
Reaches altitude 10° 06:09:12 10° 234° (SW) 3,943 10.8 -13.4°
Maximum altitude 06:19:04 60° 158° (SSE) 1,873 9.7 -11.9°
Drops below altitude 10° 06:28:45 10° 83° (E) 3,872 12.1 -10.5°
Sets 06:31:53 0° 80° (E) 4,839 12.7 -10.1°
